"Time","Temp","Dewpoint","Humidity","Pressure","Direction","Speed","Gust","Precip","PrecipRate"
"00:04:56","60.7","59.3","95","29.78","53","0.2","2.3","0.00","0.00"
"00:09:56","60.7","59.3","95","29.78","53","0.2","2.3","0.00","0.00"
"00:14:56","60.7","59.3","95","29.78","53","0.4","2.3","0.00","0.00"
"00:19:57","60.7","59.3","95","29.77","53","0.2","2.3","0.00","0.00"
"00:24:57","60.7","59.3","95","29.77","62","0.9","3.5","0.00","0.00"
"00:29:57","60.7","59.3","95","29.77","73","1.1","3.5","0.00","0.00"
"00:34:57","60.6","59.2","95","29.77","69","0.7","3","0.00","0.00"
"00:39:56","60.5","59.1","95","29.77","43","1","3.5","0.00","0.00"
"00:44:57","60.3","58.9","95","29.77","332","0.5","2.3","0.00","0.00"
"00:49:56","60.2","58.8","95","29.76","18","0.7","2.3","0.00","0.00"
"00:54:56","60","58.6","95","29.76","30","0.5","2.3","0.00","0.00"
"00:59:56","59.9","58.5","95","29.77","22","0.8","3.5","0.00","0.00"
"01:04:56","59.8","58.4","95","29.77","47","1","4","0.00","0.00"
"01:09:57","59.6","58.2","95","29.77","3","0.9","3.5","0.00","0.00"
"01:14:59","59.5","58.1","95","29.77","40","0.7","3.5","0.01","0.01"
"01:19:54","59.4","58","95","29.76","26","1.1","5","0.01","0.01"
"01:24:58","59.3","57.9","95","29.76","18","0.5","2.3","0.01","0.01"
"01:29:57","59.3","57.9","95","29.76","5","1.3","4","0.01","0.01"
"01:34:57","59.1","57.7","95","29.76","26","1.5","5","0.01","0.01"
"01:39:59","58.9","57.4","94.7","29.76","55","1.2","4","0.01","0.01"
"01:44:57","58.7","57.2","94.9","29.76","66","0","2.3","0.01","0.01"
"01:49:57","58.6","57.2","95","29.76","340","1.1","4","0.01","0.01"
"01:54:57","58.4","57","95","29.76","38","0.8","4","0.01","0.01"
"01:59:57","58.1","56.4","94","29.76","39","1.4","4","0.01","0.01"
"02:04:56","57.6","55.9","94","29.76","53","1.1","3.5","0.01","0.01"
"02:09:56","57.3","55.6","94","29.76","60","0.9","5","0.01","0.01"
"02:14:58","57","55.3","94","29.76","39","1.9","4.6","0.01","0.01"
"02:19:57","56.6","54.9","94","29.76","62","1.6","4","0.01","0.00"
"02:24:57","56.3","54.6","94","29.76","60","1.3","7","0.01","0.00"
"02:29:57","56.1","54.4","94","29.77","78","1.7","4","0.01","0.00"
"02:34:56","56","54.3","94","29.77","32","1.7","4","0.01","0.00"
"02:39:56","55.9","54.3","94.3","29.77","57","1.4","4","0.01","0.00"
"02:44:56","55.8","54.4","95","29.77","18","1.6","5","0.01","0.00"
"02:49:59","55.7","54.3","95","29.76","24","1.4","4.6","0.01","0.00"
"02:54:59","55.7","54.3","95","29.76","51","1","4","0.01","0.00"
"02:59:56","55.6","54.2","95","29.77","81","1.1","4","0.01","0.00"
"03:04:56","55.4","53.8","94.3","29.77","42","1.9","4","0.01","0.00"
"03:09:59","55.1","53.4","94","29.77","78","1.5","7","0.01","0.00"
"03:14:58","54.8","53.1","94","29.77","51","2","6","0.02","0.01"
"03:19:58","54.6","53","94.2","29.76","44","1.6","6","0.02","0.01"
"03:24:57","54.5","53.1","95","29.76","30","1.6","9.2","0.02","0.01"
"03:29:57","54.5","53.1","95","29.76","61","1.1","2.3","0.03","0.02"
"03:34:56","54.4","53","95","29.76","33","1.2","4","0.03","0.02"
"03:39:59","54.3","52.9","95","29.76","27","1.3","4","0.03","0.02"
"03:44:58","54.2","52.8","95","29.76","83","1.6","4","0.04","0.02"
"03:49:57","54.2","52.8","95","29.76","341","0.8","3.5","0.04","0.03"
"03:54:56","54.1","52.7","95","29.76","11","1","3.5","0.04","0.03"
"03:59:59","54.1","52.7","95","29.76","345","1","3.5","0.04","0.03"
"04:04:59","54.1","52.7","95","29.76","339","1.2","3.5","0.04","0.03"
"04:09:56","54","52.7","95.1","29.76","269","1.3","5","0.04","0.03"
"04:14:58","54","52.8","95.5","29.78","343","1.5","5","0.04","0.03"
"04:19:58","53.9","52.5","95","29.78","339","1.2","3.5","0.06","0.03"
"04:24:57","53.7","52.3","95","29.78","17","1.4","3.5","0.12","0.09"
"04:29:56","53.5","52.1","95","29.78","81","1","4","0.18","0.15"
"04:34:59","53.3","51.9","95","29.78","69","1.5","4","0.22","0.19"
"04:39:57","53.1","51.7","95","29.78","45","1.1","3.5","0.26","0.22"
"04:44:56","53","51.6","95","29.78","334","1.3","7","0.28","0.25"
"04:49:56","53","51.8","95.9","29.78","23","0.9","3","0.29","0.25"
"04:54:59","52.9","51.8","96","29.78","52","0.1","1.2","0.29","0.25"
"04:59:57","52.9","51.8","96","29.79","53","0.5","2.3","0.29","0.25"
"05:04:57","52.9","51.8","96","29.79","47","0.5","2.3","0.29","0.25"
"05:09:58","53","51.9","96","29.79","39","0.3","2.3","0.29","0.25"
"05:14:57","53","51.9","96","29.79","39","0","2","0.29","0.25"
"05:19:56","53","51.9","96","29.79","9","1.4","6","0.29","0.25"
"05:24:56","52.9","51.8","96","29.79","358","0.9","5","0.29","0.23"
"05:29:56","52.7","51.4","95.1","29.81","83","1.2","4","0.30","0.17"
"05:34:56","52.6","51.2","95","29.81","21","1.4","4","0.30","0.12"
"05:39:58","52.4","51","95","29.81","32","1.5","4","0.31","0.08"
"05:44:59","52.3","50.9","95","29.81","54","1","4","0.31","0.05"
"05:49:58","52.2","51","95.5","29.81","34","1","4","0.31","0.03"
"05:54:58","52.1","50.9","95.7","29.81","38","1.2","3.5","0.32","0.03"
"05:59:58","52","50.8","95.5","29.82","351","1","4","0.32","0.03"
"06:04:58","51.9","50.5","95","29.82","29","1.4","7","0.32","0.03"
"06:09:56","51.8","50.5","95.2","29.82","343","1.6","5","0.32","0.03"
"06:14:56","51.8","50.7","95.9","29.83","348","1.3","5","0.32","0.03"
"06:19:57","51.8","50.7","96","29.83","344","2.3","6","0.32","0.03"
"06:24:57","51.8","50.7","96","29.83","351","1.6","5.8","0.32","0.03"
"06:29:56","51.8","50.7","96","29.84","321","2","8","0.32","0.03"
"06:34:56","51.8","50.7","96","29.84","340","1","3.5","0.32","0.02"
"06:39:58","51.7","50.6","96","29.84","39","1","4","0.32","0.02"
"06:44:59","51.7","50.6","96","29.85","345","2.5","7","0.32","0.01"
"06:49:58","51.6","50.5","96","29.85","340","2.2","6","0.32","0.01"
"06:54:59","51.6","50.5","96","29.85","345","2.3","10","0.32","0.01"
"06:59:57","51.5","50.3","95.7","29.86","3","3.2","10.4","0.32","0.00"
"07:04:59","51.4","50","95","29.86","347","2.4","9.2","0.32","0.00"
"07:09:59","51.4","50","95","29.86","6","1.6","5.8","0.32","0.00"
"07:14:59","51.3","49.9","95","29.86","6","2.5","7","0.32","0.00"
"07:19:57","51.3","50.2","95.9","29.86","335","1.4","5","0.32","0.00"
"07:24:56","51.3","50.2","96","29.86","357","1.2","7","0.32","0.00"
"07:29:57","51.3","50.2","96","29.87","103","1.7","6.9","0.32","0.00"
"07:34:59","51.3","50.2","96","29.87","48","1.7","6","0.32","0.00"
"07:39:59","51.3","50.2","96","29.87","31","1.8","5","0.32","0.00"
"07:44:58","51.4","50.3","96","29.87","8","1.5","4","0.32","0.00"
"07:49:56","51.4","50.3","96","29.87","344","1.9","6","0.32","0.00"
"07:54:59","51.4","50.3","96","29.87","336","0.8","4","0.33","0.00"
"07:59:56","51.5","50.4","96","29.88","343","1.6","11","0.33","0.01"
"08:04:57","51.5","50.4","96","29.88","335","2.2","8.1","0.33","0.01"
"08:09:57","51.4","50.3","96","29.88","327","1.9","6","0.33","0.01"
"08:14:55","51.4","50.3","96","29.89","15","1.7","5.8","0.33","0.01"
"08:19:58","51.4","50.3","96","29.89","308","1.9","9","0.33","0.01"
"08:24:59","51.4","50.3","96","29.89","21","1.3","5","0.33","0.01"
"08:29:59","51.5","50.4","96","29.90","18","1.6","5","0.33","0.01"
"08:34:58","51.6","50.5","96","29.90","29","1.1","4","0.33","0.01"
"08:39:59","51.6","50.5","96","29.90","19","2.1","9.2","0.33","0.01"
"08:43:40","51.6","50.5","96","29.90","13","1.8","6.9","0.33","0.01"
"08:49:57","51.6","50.5","96","29.90","344","3.4","4","0.33","0.01"
"08:52:50","51.6","50.5","96","29.90","328","2.3","5","0.33","0.01"
"09:22:25","51.8","50.7","96","29.92","348","2.3","6.9","0.33","0.00"
"09:29:59","52","50.6","95","29.92","246","2.9","11.5","0.33","0.00"
"09:34:57","52","50.3","94.1","29.92","64","1.6","7","0.33","0.00"
"09:39:57","52","50.3","94","29.92","278","1.7","6.9","0.33","0.00"
"09:44:59","52.1","50.6","94.8","29.94","353","0.6","3.5","0.33","0.00"
"09:49:57","52.2","50.7","94.6","29.94","20","1.1","3.5","0.33","0.00"
"09:54:56","52.3","50.9","94.8","29.94","323","1.5","5","0.33","0.00"
"09:59:58","52.4","51","95","29.94","329","1.2","10","0.33","0.00"
"10:04:56","52.3","50.7","94.2","29.94","354","2.2","11","0.33","0.00"
"10:09:56","52.1","50.4","94","29.94","336","3.1","11.5","0.33","0.00"
"10:14:57","52","50.3","94.2","29.94","335","2.6","9","0.33","0.00"
"10:19:59","51.9","50.4","94.8","29.94","17","2.5","9.2","0.33","0.00"
"10:24:57","51.9","50.5","95","29.94","321","1.5","6","0.33","0.00"
"10:29:56","51.9","50.5","95","29.94","2","2.6","9.2","0.33","0.00"
"10:34:57","51.9","50.5","95","29.94","8","1.5","5.8","0.33","0.00"
"10:39:57","51.9","50.5","95","29.94","334","0.9","6","0.33","0.00"
"10:44:59","51.9","50.7","95.5","29.95","350","1.1","9","0.33","0.00"
"10:49:56","51.9","50.5","95","29.95","350","3.2","12","0.33","0.00"
"10:54:59","51.7","50.2","94.7","29.95","334","3.4","9.2","0.33","0.00"
"10:59:57","51.5","50.1","95","29.95","15","3.2","7","0.33","0.00"
"11:04:59","51.5","50.1","95","29.95","5","2.3","6.9","0.33","0.00"
"11:09:56","51.5","50.3","95.6","29.95","342","1.7","7","0.33","0.00"
"11:14:56","51.6","50.4","95.7","29.96","10","1.7","6","0.33","0.00"
"11:19:57","51.7","50.6","96","29.96","37","0.9","3","0.33","0.00"
"11:24:57","51.9","50.6","95.5","29.96","34","1.8","5","0.33","0.00"
"11:29:59","52","50.7","95.5","29.97","55","1.9","5","0.33","0.00"
"11:34:57","52","50.8","95.3","29.97","350","1.7","7","0.33","0.00"
"11:39:57","52","50.6","95","29.97","357","2","6.9","0.33","0.00"
"11:44:59","52.1","50.7","95","29.97","343","1.6","4","0.33","0.00"
"11:49:57","52.1","50.8","95.4","29.97","261","1.2","4","0.34","0.01"
"11:54:56","52.2","50.9","95.3","29.97","14","2.2","7","0.34","0.01"
"11:59:58","52.3","50.9","95.2","29.97","18","1.5","7","0.34","0.01"
"12:04:56","52.4","51.1","95.3","29.97","30","1.7","4","0.34","0.01"
"12:09:57","52.5","51.2","95.3","29.97","16","1","3.5","0.34","0.01"
"12:14:58","52.9","51.6","95.4","29.97","65","1.3","5","0.34","0.01"
"12:19:56","53","51.4","94.4","29.97","74","0.8","4","0.34","0.01"
"12:24:57","52.9","51.2","94","29.97","6","1.1","5","0.34","0.01"
"12:29:56","52.7","51","94","29.98","28","1.2","7","0.34","0.01"
"12:34:58","52.6","50.9","94","29.98","308","0.9","3.5","0.34","0.01"
"12:39:58","52.6","51.1","94.7","29.98","317","0.5","4","0.34","0.01"
"12:44:56","52.8","51.1","94.1","29.98","59","2.4","6","0.34","0.01"
"12:49:58","52.9","51.2","93.9","29.97","348","1.8","6","0.34","0.01"
"12:54:59","53.3","51.7","94.3","29.97","343","1.4","4.6","0.34","0.00"
"12:59:57","53.6","51.6","93.2","29.97","76","1.4","4","0.34","0.00"
"13:04:59","53.4","50.8","91.3","29.97","10","2.2","7","0.34","0.00"
"13:09:59","53","50.7","92","29.97","346","1.5","5","0.34","0.00"
"13:14:56","52.9","50.6","92","29.98","24","2.4","11.5","0.34","0.00"
"13:19:57","52.9","50.6","92","29.98","69","2","5","0.34","0.00"
"13:24:59","53.2","50.8","91.7","29.98","48","2.5","10.4","0.34","0.00"
"13:29:57","53.7","51.2","91.2","29.98","51","2.4","10.4","0.34","0.00"
"13:34:59","54.4","51.4","89.7","29.98","82","1.9","7","0.34","0.00"
"13:39:56","54.7","50.8","86.8","29.98","11","2.3","6.9","0.34","0.00"
"13:44:58","54.5","50.2","85.2","29.99","76","2.4","6","0.34","0.00"
"13:49:56","54.4","50.3","86","29.99","91","1.9","5","0.34","0.00"
"13:54:58","54.4","50.1","85.4","29.99","27","1.8","4","0.34","0.00"
"13:59:59","54.4","50.1","85.4","29.99","32","1","3.5","0.34","0.00"
"14:04:57","54.4","50.1","85.4","29.99","6","1.5","5","0.34","0.00"
"14:09:57","54.4","50.3","86","29.99","10","1.4","4.6","0.34","0.00"
"14:14:57","54.3","50.2","86","30.00","329","1.4","4","0.34","0.00"
"14:19:58","54.3","50.6","87.3","30.00","329","0.7","3.5","0.34","0.00"
"14:24:59","54.3","50.4","86.7","30.00","336","1.7","6","0.34","0.00"
"14:29:56","54.3","50.4","86.8","30.00","329","1.9","6","0.34","0.00"
"14:34:57","54.3","50.4","86.9","30.00","14","1.5","5","0.34","0.00"
"14:39:57","53.9","49.8","86","30.00","336","2.1","9","0.34","0.00"
"14:44:57","53.4","49.3","86.2","30.00","48","2.1","9.2","0.34","0.00"
"14:49:58","53","49.4","87.7","30.00","26","1","4","0.34","0.00"
"14:54:59","52.9","49.4","88","30.00","336","1.3","6","0.34","0.00"
"14:59:56","52.8","49.2","87.7","30.01","355","1.9","5","0.34","0.00"
"15:04:57","52.8","49.3","88","30.01","305","1.9","5","0.34","0.00"
"15:09:57","53","49.5","88","30.01","323","1","4","0.34","0.00"
"15:14:57","53.4","49.9","88","30.01","51","0.7","3.5","0.34","0.00"
"15:19:59","53.7","49.7","86.4","30.01","342","1.3","6","0.34","0.00"
"15:24:57","53.8","49.6","85.5","30.01","339","1.3","6","0.34","0.00"
"15:29:58","53.8","49.6","85.7","30.01","5","1.4","5","0.34","0.00"
"15:34:59","53.4","48.9","84.7","30.01","69","2","6","0.34","0.00"
"15:39:59","52.9","48.5","85.1","30.01","294","1.6","4.6","0.34","0.00"
"15:44:57","52.6","48.5","86","30.01","68","1.4","7","0.34","0.00"
"15:49:57","52.6","48.5","86","30.01","16","1.3","4","0.34","0.00"
"15:54:58","52.5","48.4","85.8","30.01","50","1.4","4","0.34","0.00"
"15:59:58","52.6","48.6","86.1","30.01","59","1.3","4","0.34","0.00"
"16:04:56","52.8","48.6","85.8","30.01","62","1.6","4","0.34","0.00"
"16:09:56","52.9","48.7","85.8","30.01","44","1.7","5","0.34","0.00"
"16:14:57","53","48.7","85.4","30.03","320","1.6","6","0.34","0.00"
"16:19:58","52.9","48.5","85.1","30.03","170","0.7","3","0.34","0.00"
"16:24:59","52.9","48.6","85.6","30.03","97","1.4","5","0.34","0.00"
"16:29:56","52.7","48.3","85","30.05","334","1.7","4.6","0.34","0.00"
"16:34:56","52.6","48.5","85.8","30.05","9","1","3.5","0.34","0.00"
"16:39:56","52.6","48.5","86","30.05","9","0.3","2.3","0.34","0.00"
"16:44:57","52.6","48.4","85.8","30.06","4","0.6","4","0.34","0.00"
"16:49:57","52.6","48.5","86","30.06","360","0.5","3","0.34","0.00"
"16:54:58","52.6","48.6","86.5","30.06","343","0.8","3.5","0.34","0.00"
"16:59:59","52.5","48.7","86.9","30.06","6","0.9","5","0.34","0.00"
"17:04:57","52.5","48.8","87.2","30.05","14","0.4","2.3","0.34","0.00"
"17:09:58","52.5","48.9","87.7","30.05","56","0.9","4","0.34","0.00"
"17:14:57","52.4","48.7","87.1","30.06","16","1.4","7","0.34","0.00"
"17:19:57","52.3","48.5","87","30.06","19","0.9","6.9","0.34","0.00"
"17:24:58","52.1","48.3","87","30.06","11","1.2","4","0.34","0.00"
"17:29:59","51.9","48.3","87.2","30.07","25","1.9","6","0.34","0.00"
"17:34:56","51.8","48.5","88.1","30.07","49","0.1","3.5","0.34","0.00"
"17:39:56","51.8","48.7","89","30.07","52","0.5","2.3","0.34","0.00"
"17:44:57","51.8","48.6","88.7","30.07","4","1","3.5","0.34","0.00"
"17:49:58","51.8","48.6","88.6","30.07","58","1.2","3.5","0.34","0.00"
"17:54:58","51.8","48.5","88.2","30.07","73","1.5","5","0.34","0.00"
"17:59:59","51.8","48.4","88","30.07","15","1.2","3.5","0.34","0.00"
"18:04:57","51.9","48.5","88","30.06","33","1.3","4","0.34","0.00"
"18:09:58","51.9","48.5","87.8","30.06","60","1","4","0.34","0.00"
"18:14:57","51.9","48.5","88","30.06","67","1.4","5","0.34","0.00"
"18:19:57","51.9","48.7","88.7","30.05","73","1.2","3.5","0.34","0.00"
"18:24:58","51.9","48.5","88","30.05","8","1.5","4","0.34","0.00"
"18:29:59","51.8","48.6","88.8","30.08","319","0.7","3.5","0.34","0.00"
"18:34:56","51.7","48.9","89.8","30.08","331","1.2","4","0.34","0.00"
"18:39:58","51.7","48.9","90","30.08","337","0.9","4","0.34","0.00"
"18:44:59","51.6","48.8","90","30.09","342","1.5","4","0.34","0.00"
"18:49:56","51.5","48.9","90.7","30.09","342","0.1","1.2","0.35","0.01"
"18:54:57","51.5","49","91","30.09","342","0.1","1.2","0.35","0.01"
"18:59:59","51.4","49.1","91.6","30.09","342","0.5","3","0.36","0.01"
"19:04:57","51.3","49.1","92","30.09","341","1","5","0.36","0.02"
"19:09:57","51.2","49.1","92.2","30.09","342","1.4","3.5","0.36","0.02"
"19:14:58","51.1","49.1","92.7","30.09","342","0.7","3.5","0.36","0.02"
"19:19:59","51","49","93","30.09","342","0.9","3.5","0.36","0.02"
"19:24:57","51","49","93","30.09","342","0.5","2.3","0.37","0.03"
"19:29:59","50.9","48.9","93","30.09","0","0.3","3","0.37","0.03"
"19:34:56","50.8","48.8","93","30.09","358","1","4","0.37","0.03"
"19:39:56","50.8","48.8","93","30.09","84","0.8","5","0.38","0.04"
"19:44:57","50.7","48.8","93.3","30.09","28","0.9","4","0.38","0.04"
"19:49:57","50.7","48.9","93.5","30.08","344","0.5","3","0.38","0.04"
"19:54:58","50.7","49","94","30.08","335","1.6","5","0.38","0.03"
"19:59:56","50.6","48.9","94","30.09","337","0.9","4.6","0.38","0.03"
"20:04:58","50.6","48.9","94","30.09","18","0.9","3","0.38","0.02"
"20:09:59","50.5","48.8","94","30.09","13","0.5","3.5","0.38","0.02"
"20:14:56","50.5","48.8","94","30.09","12","1.4","3.5","0.38","0.02"
"20:19:57","50.5","48.8","94","30.09","12","0.6","3.5","0.38","0.02"
"20:24:58","50.5","48.8","94","30.09","344","0.9","4","0.38","0.02"
"20:29:59","50.5","48.8","94","30.10","345","1","4","0.38","0.01"
"20:34:57","50.5","48.8","94","30.10","6","1.3","5","0.38","0.01"
"20:39:57","50.4","48.7","94","30.10","343","1.6","5","0.38","0.01"
"20:44:59","50.3","48.6","94","30.11","321","0.8","4","0.38","0.00"
"20:49:57","50.3","48.6","94","30.11","322","0.7","4","0.38","0.00"
"20:54:59","50.2","48.5","94","30.11","341","1","4","0.38","0.00"
"20:59:56","50.2","48.5","94","30.11","341","1","5","0.38","0.00"
"21:04:58","50.1","48.4","94","30.10","324","0.8","6","0.38","0.00"
"21:09:59","50.1","48.4","94","30.10","333","1.3","5","0.38","0.00"
"21:14:56","50.1","48.4","94","30.11","331","0.8","4","0.38","0.00"
"21:19:59","50.1","48.4","94","30.11","342","0.5","5","0.38","0.00"
"21:24:57","50.1","48.4","94","30.11","8","0.8","4.6","0.38","0.00"
"21:29:59","50.1","48.4","94","30.11","22","0.6","3.5","0.38","0.00"
"21:34:56","50.1","48.4","94","30.11","46","0.4","3","0.38","0.00"
"21:39:56","50.1","48.4","94","30.11","351","0.5","3.5","0.38","0.00"
"21:44:57","50.1","48.4","94","30.11","352","1.4","4","0.38","0.00"
"21:49:59","50.1","48.4","94","30.11","319","1.4","5","0.38","0.00"
"21:54:56","50.1","48.4","94","30.11","30","1.2","5","0.38","0.00"
"21:59:57","50.1","48.4","94","30.12","351","1.6","4","0.38","0.00"
"22:04:55","50","48.3","94","30.12","28","0.9","3.5","0.38","0.00"
"22:09:56","50","48.3","94","30.12","356","1","4","0.38","0.00"
"22:14:56","49.9","48.2","94","30.13","342","0.8","7","0.38","0.00"
"22:19:57","49.9","48.2","94","30.13","8","0.5","3","0.38","0.00"
"22:24:58","49.9","48.2","94","30.13","4","1.1","3.5","0.38","0.00"
"22:29:58","49.9","48.2","94","30.13","337","1.6","6","0.38","0.00"
"22:34:59","49.9","48.2","94","30.13","334","1.2","4","0.38","0.00"
"22:39:59","49.9","48.2","94.1","30.13","339","0.7","4","0.38","0.00"
"22:44:57","49.9","48.3","94.5","30.13","326","0.8","3.5","0.38","0.00"
"22:49:56","49.9","48.4","94.7","30.12","326","0.8","4","0.38","0.00"
"22:54:58","49.9","48.2","94.1","30.12","355","1.7","5","0.38","0.00"
"22:59:59","49.8","48.1","94","30.13","329","1.6","5","0.38","0.00"
"23:04:58","49.8","48.1","94","30.13","341","1.2","6","0.38","0.00"
"23:09:59","49.8","48.1","94","30.13","337","1.9","5.8","0.38","0.00"
"23:14:58","49.7","48","94","30.14","334","1.3","3.5","0.38","0.00"
"23:19:55","49.7","48","94","30.14","342","1.3","6","0.38","0.00"
"23:24:56","49.7","48","94","30.14","345","1.4","5","0.38","0.00"
"23:29:56","49.6","47.9","94","30.14","337","1.5","4","0.38","0.00"
"23:34:57","49.6","47.9","94","30.14","328","1.3","4","0.38","0.00"
"23:39:57","49.6","47.9","94","30.14","331","0.5","2.3","0.38","0.00"
"23:44:58","49.6","47.9","94","30.14","335","0.8","2.3","0.38","0.00"
"23:49:55","49.5","47.8","94","30.14","337","0.4","2.3","0.38","0.00"
"23:54:57","49.5","47.8","94","30.14","11","1","6","0.38","0.00"
"23:59:58","49.5","47.8","94","30.14","347","0.8","5.8","0.38","0.00"
